SCP
-0 0 -0 -0 -0 -0 -1 -0 -0 -0 -0 -0 -0 -0 -0 -0 -0 -0 -0 -0 -0 -0 -0 -0 -0 -0 0 0 -0 -0 0 0 0 0 0 0 0 0 0 0 0 0 0
-0 -0 -0 -0 -1 -0 -0 -0 -0 -0 -0 -0 -0 -0 -0 -0 -0 -0 -0 -0 -0 -0 -0 -0 -0 -0 -0 -0 -0 -0 0 0 0 0 0 0 0 0 0 0 0 0 0
-1 -1 -0 -1 -1 -1 -0 -0 -0 -0 -0 -0 -0 -0 -0 -0 -0 -0 -0 -0 -0 -0 -0 -0 -0 -0 -0 -0 0 0 0 0 0 0 0 0 0 0 0 0 0 0 0
-2 -1 -0 -1 -1 -1 -0 -0 -0 -0 -0 -0 -0 -0 -0 -0 -0 -0 -0 -0 -0 -0 -0 -0 -0 -0 -0 0 0 0 0 0 0 0 0 0 0 0 0 -0 0 0 0
-1 -0 -0 -1 -1 -1 -0 -0 -0 -0 -0 -0 -0 -0 -0 -0 -0 -0 -0 -0 -0 -0 -0 -0 -0 -0 0 0 0 0 0 0 0 0 0 0 0 0 0 -0 0 0 0
0 0 -0 -0 -1 -1 -0 -0 -0 -0 -0 -0 0 0 0 -0 -0 -0 -0 -0 -0 -0 -0 -0 -0 0 0 0 0 0 0 0 0 0 0 0 0 0 0 0 0 0 0
0 0 -0 -0 -0 -0 -0 -0 -0 -0 -0 0 -0 0 -0 -0 -0 -0 -0 -0 -0 -0 -0 -0 0 0 0 0 0 0 0 0 0 0 0 0 0 0 0 0 0 0 0
0 1 0 -0 -0 -0 -0 -0 -0 -0 0 0 0 -0 -0 -0 0 -0 -0 -0 -0 -0 0 0 0 0 0 0 0 0 0 0 0 0 0 0 0 0 0 0 0 0 0
1 1 1 0 0 0 -0 -0 -0 -0 -0 -0 0 -0 -0 -0 -0 -0 -0 -0 -0 -0 0 0 0 0 0 0 0 0 0 0 0 0 0 0 0 0 1 1 0 0 0
1 1 1 1 0 0 0 -0 -0 -0 0 -0 -0 -0 -0 -0 -0 -0 -0 -0 -0 0 0 0 0 0 0 0 0 0 0 0 0 0 0 0 0 0 1 1 0 0 0
1 2 1 1 0 1 0 0 0 0 0 0 0 -0 0 -0 -0 -0 0 0 0 0 0 0 0 0 0 0 0 0 0 0 0 0 0 0 0 1 1 1 1 0 0
1 1 1 1 1 1 1 0 0 0 0 0 0 0 0 -0 -0 0 0 -0 -0 0 0 0 0 0 0 0 0 0 0 0 0 0 0 0 0 1 0 1 1 1 1
1 1 2 1 1 1 1 0 0 0 0 0 0 0 -0 -0 -0 -0 -0 -0 0 0 0 0 0 0 0 0 0 0 0 0 0 0 0 0 0 1 1 1 1 1 1
1 1 1 1 1 1 1 1 0 0 0 0 0 0 -0 -0 -0 -0 -0 0 0 0 0 0 -0 0 0 0 0 0 0 0 0 0 0 0 1 1 1 1 2 2 2
3 1 0 0 1 1 1 0 0 0 0 0 0 0 -0 -0 -0 -0 -0 0 0 0 0 0 0 0 0 0 0 0 0 0 0 0 0 1 1 1 1 3 2 1 1
3 1 0 0 1 0 0 0 0 0 0 0 0 0 -0 -0 -0 -0 -0 0 0 0 0 0 0 0 0 0 0 0 0 0 0 0 0 0 1 1 2 3 1 1 1
3 3 0 0 0 0 0 0 0 0 0 0 0 -0 -0 -0 -0 0 0 -0 0 0 0 0 0 0 0 0 0 0 0 0 0 0 0 0 0 0 0 0 0 0 0
4 1 1 2 0 0 0 0 0 0 0 0 0 0 0 -0 0 0 0 0 0 0 0 0 0 0 0 0 0 0 0 0 0 0 0 0 0 0 0 0 0 0 0
4 3 4 2 1 0 0 0 0 0 0 0 0 0 0 0 0 0 0 0 0 0 0 0 0 0 0 0 0 0 0 0 0 0 0 0 0 0 0 0 0 0 0
3 4 2 0 0 1 0 1 0 0 0 0 0 0 0 0 0 0 0 0 0 0 0 0 0 0 0 0 0 0 0 0 0 0 0 0 0 0 0 0 0 0 0
2 1 3 3 1 2 1 1 0 0 1 1 0 0 0 0 0 0 0 0 0 0 0 0 0 0 0 0 0 0 0 0 0 0 0 0 0 0 0 0 0 0 0
1 1 2 1 0 3 2 2 1 1 1 1 1 0 0 0 0 0 0 0 0 0 0 0 0 0 0 0 0 0 0 0 0 0 0 0 0 0 0 0 0 0 0
3 2 1 0 0 1 3 2 2 2 3 2 1 1 1 0 0 0 0 0 0 0 0 0 0 0 0 0 0 0 0 0 0 0 0 0 0 0 0 0 0 0 0
2 2 1 2 2 2 2 3 2 1 3 2 2 0 0 0 0 0 0 0 0 0 0 0 0 0 0 0 0 0 0 0 0 0 0 0 0 0 0 0 0 0 0
3 4 2 1 1 0 0 1 1 1 3 1 0 0 0 0 0 0 0 0 0 0 0 0 0 0 0 0 0 0 0 0 0 0 0 0 0 0 0 0 0 0 0
0 5 6 3 2 0 0 0 0 2 2 1 0 0 0 0 0 0 0 0 0 0 0 0 0 0 0 0 0 0 0 0 0 0 0 0 0 0 0 0 0 0 0
Wind_Speed_500mb
61 64 58 55 52 44 42 40 38 33 34 34 34 37 38 38 39 38 38 37 35 37 38 34 28 23 20 17 13 10 9 12 14 17 21 24 23 22 21 19 17 16 9
59 72 61 58 55 48 43 39 37 35 35 34 34 37 38 40 40 41 40 38 38 38 35 31 25 20 19 18 16 14 13 14 16 20 24 25 21 21 22 25 25 21 17
76 75 67 61 55 50 44 39 36 35 36 34 34 37 39 40 40 39 39 39 38 35 31 27 22 20 19 16 14 14 15 18 20 22 19 11 10 15 21 28 28 25 21
81 78 69 64 57 51 46 40 36 35 35 33 33 35 37 38 39 38 37 37 34 30 26 23 20 18 17 16 15 15 16 21 23 22 16 11 9 8 11 19 26 29 28
76 76 72 65 59 54 48 43 39 36 36 33 32 34 36 37 38 37 34 31 28 25 23 20 16 14 13 12 12 12 14 18 21 17 12 5 2 3 4 13 22 29 35
78 74 72 67 61 56 49 43 39 36 35 33 31 31 33 35 35 34 32 30 28 24 21 17 14 12 10 8 7 7 10 17 23 16 8 0 10 4 6 11 22 32 37
77 76 71 65 60 56 51 44 40 37 35 32 30 30 31 32 32 31 29 26 23 19 15 14 11 8 6 4 4 3 5 12 22 16 9 4 10 5 10 14 21 28 35
78 78 71 64 61 58 52 47 43 39 37 35 31 31 31 32 32 29 25 22 19 16 13 10 7 5 3 2 3 3 2 6 14 22 13 7 13 10 7 15 20 29 36
76 80 74 70 64 59 53 49 44 41 39 36 33 31 31 31 30 28 24 19 16 12 9 6 3 1 1 2 4 6 4 3 8 14 16 9 11 14 12 17 24 33 37
78 77 76 72 69 65 58 49 45 41 39 36 33 33 31 30 30 29 25 19 14 11 7 3 1 1 1 4 13 15 16 9 5 7 7 8 17 19 19 19 31 32 34
79 77 74 74 72 69 63 56 48 42 39 37 34 32 32 31 30 27 23 19 13 9 5 3 2 2 4 9 11 8 10 10 9 7 12 19 25 23 15 22 26 28 33
81 81 78 75 73 73 70 63 56 48 43 40 36 34 33 31 30 27 22 17 11 7 5 4 4 6 9 10 5 5 5 6 12 12 18 17 13 8 12 19 21 28 33
68 79 81 76 74 74 74 69 61 53 46 41 36 33 34 33 32 27 22 15 11 8 5 7 6 8 6 2 4 3 2 2 12 12 17 19 22 11 16 19 24 30 35
74 73 81 83 79 76 71 67 59 53 47 42 39 37 37 35 32 25 22 15 10 11 10 9 4 2 5 11 14 5 7 13 7 8 12 15 18 19 19 21 29 29 32
81 72 75 86 83 77 71 65 58 51 44 40 38 40 39 34 34 30 22 15 11 12 8 6 3 2 8 10 14 16 16 14 10 17 21 21 19 11 13 22 26 27 28
80 80 72 86 84 76 71 66 58 53 45 42 40 41 41 35 31 26 21 13 14 11 3 4 11 14 15 10 10 17 20 27 21 10 17 20 12 17 25 19 19 27 37
77 88 84 89 78 73 67 62 55 51 47 44 40 41 36 33 29 24 22 20 15 10 9 8 8 8 9 17 27 25 30 33 27 10 17 19 17 31 21 23 30 38 39
78 82 79 72 78 70 64 56 51 53 49 45 42 42 37 32 28 28 27 32 27 25 19 15 16 20 27 28 31 35 38 33 21 26 19 15 24 26 25 33 40 41 45
63 74 83 72 59 51 54 52 43 50 49 47 38 38 39 33 32 26 22 29 25 27 23 24 25 24 26 33 36 35 30 20 13 13 28 27 17 26 37 43 43 38 36
30 72 83 80 65 52 65 55 46 46 40 47 38 30 30 31 29 29 28 25 23 20 21 24 26 29 32 36 35 35 24 20 21 16 9 16 27 35 36 37 38 44 43
35 65 84 68 78 97 76 60 59 53 41 43 35 26 20 29 33 27 31 20 17 25 30 31 32 29 24 27 23 8 10 8 12 15 19 22 34 37 32 41 35 28 31
39 60 86 81 99 78 64 67 69 49 39 35 35 32 25 32 34 32 29 23 21 22 26 24 19 15 11 3 9 10 5 5 9 27 18 30 39 33 34 25 29 33 34
52 67 74 89 87 76 93 76 59 46 38 45 49 44 38 36 39 33 32 28 21 20 18 14 4 7 8 8 10 8 4 4 24 10 28 25 37 33 17 24 26 34 42
52 63 81 83 72 87 85 82 47 61 61 51 52 55 44 38 35 28 27 27 23 19 14 7 15 11 7 4 7 8 6 10 9 17 20 33 37 29 24 28 33 43 51
50 65 69 76 76 88 89 99 87 75 71 64 58 48 41 39 32 23 18 21 19 12 14 15 11 8 4 6 6 4 3 3 10 12 27 46 38 35 25 25 36 50 52
59 61 77 76 80 89 84 73 70 85 74 68 62 50 43 36 29 28 24 23 17 18 17 12 7 5 4 8 12 13 13 14 17 15 24 38 43 44 35 35 43 49 58
Wind_Direction_500mb
207 184 177 170 169 164 160 153 147 143 137 134 135 139 140 141 141 140 139 139 137 136 133 129 127 124 122 118 110 101 90 89 95 94 92 86 75 66 52 38 23 29 9
193 179 176 172 167 164 161 156 151 146 138 135 133 136 137 138 138 138 139 139 139 136 133 128 120 111 116 118 117 110 111 110 109 113 113 106 85 68 40 25 15 12 5
182 177 173 172 168 164 160 159 155 150 142 138 134 136 138 139 140 139 139 139 140 139 135 128 121 116 125 135 135 131 124 119 119 126 129 130 93 54 29 11 12 5 356
177 174 171 170 169 164 161 160 159 155 145 140 135 136 140 141 142 140 138 140 142 138 133 134 135 130 128 132 138 137 136 140 132 121 112 103 108 67 12 14 9 6 1
176 173 169 170 168 164 162 162 162 158 150 146 141 141 144 145 145 142 140 140 139 141 141 140 133 127 123 128 136 141 143 152 154 150 136 134 150 14 354 355 352 354 351
171 171 170 170 169 164 162 162 165 160 156 152 148 146 148 148 148 144 141 141 142 145 146 141 133 122 119 119 124 142 157 159 160 168 176 162 292 239 291 318 339 339 346
169 170 171 171 169 166 162 162 165 163 162 160 156 153 151 151 150 149 146 142 143 147 153 148 143 126 118 112 115 113 154 177 184 202 217 275 38 326 273 311 322 334 344
168 169 171 171 172 167 164 163 165 164 165 165 163 158 156 157 158 156 151 150 149 149 155 153 148 137 115 98 68 77 137 189 206 218 234 258 318 340 337 285 309 331 337
172 169 172 173 173 168 167 166 167 168 170 168 168 163 163 164 162 162 162 159 159 156 162 173 181 156 54 60 68 84 87 184 207 212 231 265 307 315 294 294 317 332 332
175 174 174 175 175 171 170 169 168 170 171 171 171 168 169 169 169 170 170 168 171 176 189 206 209 105 96 121 119 96 75 78 127 175 177 278 305 301 281 290 328 325 323
180 180 179 179 178 173 171 170 171 174 174 172 172 173 173 174 174 174 173 178 180 192 195 196 149 129 148 154 130 113 98 86 74 28 332 308 299 282 271 309 322 319 323
183 185 186 184 182 178 175 174 174 176 178 176 175 175 174 175 177 179 177 181 187 199 190 184 158 161 153 147 186 180 111 96 14 21 3 3 4 333 324 311 302 316 326
181 188 190 189 186 184 180 178 177 178 178 176 174 177 173 174 180 180 182 185 194 192 173 177 139 132 105 345 326 192 210 344 342 341 339 351 348 329 309 295 309 314 321
183 188 192 192 190 189 186 183 180 180 178 178 175 177 176 175 178 173 160 136 118 153 120 138 155 233 59 27 10 315 284 305 281 319 334 318 329 328 305 308 301 305 313
187 191 194 193 194 191 189 187 184 184 183 180 179 180 176 175 164 172 169 156 142 147 142 100 202 334 4 336 323 296 279 261 244 274 288 303 319 334 312 296 302 314 317
199 191 193 193 196 191 191 192 187 187 185 183 187 187 177 178 168 174 188 180 186 179 210 300 249 290 255 279 275 278 263 261 261 287 286 282 316 311 302 291 297 302 305
199 189 186 191 193 193 192 194 194 192 192 186 194 187 184 181 175 188 209 215 211 216 228 237 254 277 280 267 270 266 272 282 298 271 318 305 300 313 295 311 317 314 307
210 193 183 187 189 193 188 189 191 196 196 191 192 185 191 193 183 196 217 222 225 228 235 241 253 272 266 278 282 284 303 312 271 269 287 292 304 298 307 313 312 310 311
213 201 186 181 176 202 201 194 187 192 195 193 182 185 190 198 194 200 204 212 204 210 240 245 252 268 277 283 292 306 319 326 269 249 298 303 325 317 317 317 318 322 325
205 210 203 191 171 230 217 205 186 180 178 180 173 175 185 198 197 207 203 211 228 238 247 252 265 273 277 284 297 303 307 273 260 309 319 316 317 324 326 330 333 329 330
206 197 202 196 194 200 208 200 190 185 180 181 178 182 193 196 203 217 201 220 240 246 259 266 270 279 290 301 319 78 34 31 192 321 304 300 320 333 337 336 345 342 347
200 190 191 180 183 185 213 213 199 186 180 174 185 197 200 198 201 207 213 220 240 258 269 270 277 285 282 18 52 21 46 108 199 302 288 308 335 340 337 340 334 337 343
201 201 199 181 182 192 198 198 196 189 179 189 201 199 192 197 202 212 218 231 253 265 271 288 273 158 117 63 27 26 321 262 307 235 296 315 343 349 359 353 350 343 334
208 208 207 210 211 205 190 187 214 196 188 198 200 193 188 200 201 213 221 239 261 275 276 177 138 115 91 29 354 4 4 317 322 314 316 329 349 353 355 347 335 336 330
232 205 208 204 193 189 198 207 214 212 193 180 186 186 196 195 199 207 220 236 258 240 173 155 131 106 69 10 336 351 333 294 325 324 322 337 351 1 8 348 334 338 335
256 213 202 207 202 205 207 184 182 208 179 170 187 185 195 200 194 190 208 234 208 173 154 140 126 100 54 15 12 11 17 23 9 360 341 340 347 355 1 346 348 344 342
Wind_Speed_850mb
61 64 58 55 52 44 42 40 38 33 34 34 34 37 38 38 39 38 38 37 35 37 38 34 28 23 20 17 13 10 9 12 14 17 21 24 23 22 21 19 17 16 9
59 72 61 58 55 48 43 39 37 35 35 34 34 37 38 40 40 41 40 38 38 38 35 31 25 20 19 18 16 14 13 14 16 20 24 25 21 21 22 25 25 21 17
76 75 67 61 55 50 44 39 36 35 36 34 34 37 39 40 40 39 39 39 38 35 31 27 22 20 19 16 14 14 15 18 20 22 19 11 10 15 21 28 28 25 21
81 78 69 64 57 51 46 40 36 35 35 33 33 35 37 38 39 38 37 37 34 30 26 23 20 18 17 16 15 15 16 21 23 22 16 11 9 8 11 19 26 29 28
76 76 72 65 59 54 48 43 39 36 36 33 32 34 36 37 38 37 34 31 28 25 23 20 16 14 13 12 12 12 14 18 21 17 12 5 2 3 4 13 22 29 35
78 74 72 67 61 56 49 43 39 36 35 33 31 31 33 35 35 34 32 30 28 24 21 17 14 12 10 8 7 7 10 17 23 16 8 0 10 4 6 11 22 32 37
77 76 71 65 60 56 51 44 40 37 35 32 30 30 31 32 32 31 29 26 23 19 15 14 11 8 6 4 4 3 5 12 22 16 9 4 10 5 10 14 21 28 35
78 78 71 64 61 58 52 47 43 39 37 35 31 31 31 32 32 29 25 22 19 16 13 10 7 5 3 2 3 3 2 6 14 22 13 7 13 10 7 15 20 29 36
76 80 74 70 64 59 53 49 44 41 39 36 33 31 31 31 30 28 24 19 16 12 9 6 3 1 1 2 4 6 4 3 8 14 16 9 11 14 12 17 24 33 37
78 77 76 72 69 65 58 49 45 41 39 36 33 33 31 30 30 29 25 19 14 11 7 3 1 1 1 4 13 15 16 9 5 7 7 8 17 19 19 19 31 32 34
79 77 74 74 72 69 63 56 48 42 39 37 34 32 32 31 30 27 23 19 13 9 5 3 2 2 4 9 11 8 10 10 9 7 12 19 25 23 15 22 26 28 33
81 81 78 75 73 73 70 63 56 48 43 40 36 34 33 31 30 27 22 17 11 7 5 4 4 6 9 10 5 5 5 6 12 12 18 17 13 8 12 19 21 28 33
68 79 81 76 74 74 74 69 61 53 46 41 36 33 34 33 32 27 22 15 11 8 5 7 6 8 6 2 4 3 2 2 12 12 17 19 22 11 16 19 24 30 35
74 73 81 83 79 76 71 67 59 53 47 42 39 37 37 35 32 25 22 15 10 11 10 9 4 2 5 11 14 5 7 13 7 8 12 15 18 19 19 21 29 29 32
81 72 75 86 83 77 71 65 58 51 44 40 38 40 39 34 34 30 22 15 11 12 8 6 3 2 8 10 14 16 16 14 10 17 21 21 19 11 13 22 26 27 28
80 80 72 86 84 76 71 66 58 53 45 42 40 41 41 35 31 26 21 13 14 11 3 4 11 14 15 10 10 17 20 27 21 10 17 20 12 17 25 19 19 27 37
77 88 84 89 78 73 67 62 55 51 47 44 40 41 36 33 29 24 22 20 15 10 9 8 8 8 9 17 27 25 30 33 27 10 17 19 17 31 21 23 30 38 39
78 82 79 72 78 70 64 56 51 53 49 45 42 42 37 32 28 28 27 32 27 25 19 15 16 20 27 28 31 35 38 33 21 26 19 15 24 26 25 33 40 41 45
63 74 83 72 59 51 54 52 43 50 49 47 38 38 39 33 32 26 22 29 25 27 23 24 25 24 26 33 36 35 30 20 13 13 28 27 17 26 37 43 43 38 36
30 72 83 80 65 52 65 55 46 46 40 47 38 30 30 31 29 29 28 25 23 20 21 24 26 29 32 36 35 35 24 20 21 16 9 16 27 35 36 37 38 44 43
35 65 84 68 78 97 76 60 59 53 41 43 35 26 20 29 33 27 31 20 17 25 30 31 32 29 24 27 23 8 10 8 12 15 19 22 34 37 32 41 35 28 31
39 60 86 81 99 78 64 67 69 49 39 35 35 32 25 32 34 32 29 23 21 22 26 24 19 15 11 3 9 10 5 5 9 27 18 30 39 33 34 25 29 33 34
52 67 74 89 87 76 93 76 59 46 38 45 49 44 38 36 39 33 32 28 21 20 18 14 4 7 8 8 10 8 4 4 24 10 28 25 37 33 17 24 26 34 42
52 63 81 83 72 87 85 82 47 61 61 51 52 55 44 38 35 28 27 27 23 19 14 7 15 11 7 4 7 8 6 10 9 17 20 33 37 29 24 28 33 43 51
50 65 69 76 76 88 89 99 87 75 71 64 58 48 41 39 32 23 18 21 19 12 14 15 11 8 4 6 6 4 3 3 10 12 27 46 38 35 25 25 36 50 52
59 61 77 76 80 89 84 73 70 85 74 68 62 50 43 36 29 28 24 23 17 18 17 12 7 5 4 8 12 13 13 14 17 15 24 38 43 44 35 35 43 49 58
Wind_Direction_850mb
207 184 177 170 169 164 160 153 147 143 137 134 135 139 140 141 141 140 139 139 137 136 133 129 127 124 122 118 110 101 90 89 95 94 92 86 75 66 52 38 23 29 9
193 179 176 172 167 164 161 156 151 146 138 135 133 136 137 138 138 138 139 139 139 136 133 128 120 111 116 118 117 110 111 110 109 113 113 106 85 68 40 25 15 12 5
182 177 173 172 168 164 160 159 155 150 142 138 134 136 138 139 140 139 139 139 140 139 135 128 121 116 125 135 135 131 124 119 119 126 129 130 93 54 29 11 12 5 356
177 174 171 170 169 164 161 160 159 155 145 140 135 136 140 141 142 140 138 140 142 138 133 134 135 130 128 132 138 137 136 140 132 121 112 103 108 67 12 14 9 6 1
176 173 169 170 168 164 162 162 162 158 150 146 141 141 144 145 145 142 140 140 139 141 141 140 133 127 123 128 136 141 143 152 154 150 136 134 150 14 354 355 352 354 351
171 171 170 170 169 164 162 162 165 160 156 152 148 146 148 148 148 144 141 141 142 145 146 141 133 122 119 119 124 142 157 159 160 168 176 162 292 239 291 318 339 339 346
169 170 171 171 169 166 162 162 165 163 162 160 156 153 151 151 150 149 146 142 143 147 153 148 143 126 118 112 115 113 154 177 184 202 217 275 38 326 273 311 322 334 344
168 169 171 171 172 167 164 163 165 164 165 165 163 158 156 157 158 156 151 150 149 149 155 153 148 137 115 98 68 77 137 189 206 218 234 258 318 340 337 285 309 331 337
172 169 172 173 173 168 167 166 167 168 170 168 168 163 163 164 162 162 162 159 159 156 162 173 181 156 54 60 68 84 87 184 207 212 231 265 307 315 294 294 317 332 332
175 174 174 175 175 171 170 169 168 170 171 171 171 168 169 169 169 170 170 168 171 176 189 206 209 105 96 121 119 96 75 78 127 175 177 278 305 301 281 290 328 325 323
180 180 179 179 178 173 171 170 171 174 174 172 172 173 173 174 174 174 173 178 180 192 195 196 149 129 148 154 130 113 98 86 74 28 332 308 299 282 271 309 322 319 323
183 185 186 184 182 178 175 174 174 176 178 176 175 175 174 175 177 179 177 181 187 199 190 184 158 161 153 147 186 180 111 96 14 21 3 3 4 333 324 311 302 316 326
181 188 190 189 186 184 180 178 177 178 178 176 174 177 173 174 180 180 182 185 194 192 173 177 139 132 105 345 326 192 210 344 342 341 339 351 348 329 309 295 309 314 321
183 188 192 192 190 189 186 183 180 180 178 178 175 177 176 175 178 173 160 136 118 153 120 138 155 233 59 27 10 315 284 305 281 319 334 318 329 328 305 308 301 305 313
187 191 194 193 194 191 189 187 184 184 183 180 179 180 176 175 164 172 169 156 142 147 142 100 202 334 4 336 323 296 279 261 244 274 288 303 319 334 312 296 302 314 317
199 191 193 193 196 191 191 192 187 187 185 183 187 187 177 178 168 174 188 180 186 179 210 300 249 290 255 279 275 278 263 261 261 287 286 282 316 311 302 291 297 302 305
199 189 186 191 193 193 192 194 194 192 192 186 194 187 184 181 175 188 209 215 211 216 228 237 254 277 280 267 270 266 272 282 298 271 318 305 300 313 295 311 317 314 307
210 193 183 187 189 193 188 189 191 196 196 191 192 185 191 193 183 196 217 222 225 228 235 241 253 272 266 278 282 284 303 312 271 269 287 292 304 298 307 313 312 310 311
213 201 186 181 176 202 201 194 187 192 195 193 182 185 190 198 194 200 204 212 204 210 240 245 252 268 277 283 292 306 319 326 269 249 298 303 325 317 317 317 318 322 325
205 210 203 191 171 230 217 205 186 180 178 180 173 175 185 198 197 207 203 211 228 238 247 252 265 273 277 284 297 303 307 273 260 309 319 316 317 324 326 330 333 329 330
206 197 202 196 194 200 208 200 190 185 180 181 178 182 193 196 203 217 201 220 240 246 259 266 270 279 290 301 319 78 34 31 192 321 304 300 320 333 337 336 345 342 347
200 190 191 180 183 185 213 213 199 186 180 174 185 197 200 198 201 207 213 220 240 258 269 270 277 285 282 18 52 21 46 108 199 302 288 308 335 340 337 340 334 337 343
201 201 199 181 182 192 198 198 196 189 179 189 201 199 192 197 202 212 218 231 253 265 271 288 273 158 117 63 27 26 321 262 307 235 296 315 343 349 359 353 350 343 334
208 208 207 210 211 205 190 187 214 196 188 198 200 193 188 200 201 213 221 239 261 275 276 177 138 115 91 29 354 4 4 317 322 314 316 329 349 353 355 347 335 336 330
232 205 208 204 193 189 198 207 214 212 193 180 186 186 196 195 199 207 220 236 258 240 173 155 131 106 69 10 336 351 333 294 325 324 322 337 351 1 8 348 334 338 335
256 213 202 207 202 205 207 184 182 208 179 170 187 185 195 200 194 190 208 234 208 173 154 140 126 100 54 15 12 11 17 23 9 360 341 340 347 355 1 346 348 344 342